Dublin, Ireland

2:04 PM IST on July 24, 2017 (GMT +0100)
Dublin International

Weather History for EIDW - April, 2014

Change the Weather History Date:

Friday, April 4, 2014

  Actual Average Record
Temperature  
Mean Temperature 50 °F -  
Max Temperature 59 °F 54 °F 62 °F (2003)
Min Temperature 41 °F 41 °F 25 °F (2013)
Degree Days  
Heating Degree Days 15    
Moisture  
Dew Point 43 °F    
Average Humidity 74    
Maximum Humidity 100    
Minimum Humidity 41    
Precipitation  
Precipitation 0.01 in 0.07 in - ()
Sea Level Pressure  
Sea Level Pressure 29.68 in    
Wind  
Wind Speed 4 mph ()    
Max Wind Speed 17 mph    
Max Gust Speed -    
Visibility 5.8 miles    
Events Fog , Rain    
Averages and records for this station are not official NWS values.
T = Trace of Precipitation, MM = Missing Value Source: Averaged Metar Reports

Daily Weather History Graph

Daily Weather History Graph

Search for Another Location

Airport or City:

Trip Planner

Search our weather history database for the weather conditions in past years. The results will help you decide how hot, cold, wet, or windy it might be!

Date:

Astronomy

Apr. 04, 2014 Rise Set
Actual Time 6:51 AM IST 8:05 PM IST
Civil Twilight 6:15 AM IST 8:41 PM IST
Nautical Twilight 5:32 AM IST 9:25 PM IST
Astronomical Twilight 4:44 AM IST 10:13 PM IST
Moon 9:26 AM IST (4/4) 12:40 AM IST (4/4)
Length of Visible Light 14h 25m
Length of Day
13h 13m
Waxing Crescent, 23% of the Moon is Illuminated
Apr 4
Waxing Crescent
Apr 7
First Quarter
Apr 15
Full
Apr 22
Last Quarter
Apr 29
New

Hourly Weather History & Observations

Time (IST) Temp. Windchill Dew Point Humidity Pressure Visibility Wind Dir Wind Speed Gust Speed Precip Events Conditions
12:00 AM 42 °F - 40 °F 92% 29.64 in 0 mi Calm Calm - - Fog Partial Fog
12:00 AM 42.8 °F - 42.8 °F 100% 29.62 in 0.3 mi Calm Calm - N/A Fog Fog
12:30 AM 42.8 °F 41.1 °F 42.8 °F 100% 29.62 in 0.6 mi Variable 3.5 mph - N/A Fog Patches of Fog
1:00 AM 44 °F - 43 °F 97% 29.65 in 1 mi Calm Calm - - Fog Partial Fog
1:00 AM 44.6 °F - 42.8 °F 93% 29.62 in 0.6 mi Calm Calm - N/A Fog Patches of Fog
1:30 AM 42.8 °F - 42.8 °F 100% 29.62 in 0.6 mi Calm Calm - N/A Fog Patches of Fog
2:00 AM 43 °F - 43 °F 100% 29.65 in 1 mi Calm Calm - - Fog Patches of Fog
2:00 AM 42.8 °F - 42.8 °F 100% 29.62 in 0.6 mi Calm Calm - N/A Fog Patches of Fog
2:30 AM 44.6 °F - 44.6 °F 100% 29.62 in 4.3 mi West 2.3 mph - N/A Fog Fog
3:00 AM 46 °F - 45 °F 93% 29.66 in 12 mi SSW 2.2 mph - - Fog Light Fog
3:00 AM 46.4 °F - 44.6 °F 93% 29.65 in 6.2 mi SW 2.3 mph - N/A   Mostly Cloudy
3:30 AM 46.4 °F - 44.6 °F 93% 29.65 in 6.2 mi Calm Calm - N/A   Mostly Cloudy
5:00 AM 47 °F - 43 °F 80% 29.67 in 22 mi SE 2.2 mph - -   Mostly Cloudy
5:00 AM 46.4 °F - 42.8 °F 87% 29.65 in 6.2 mi Variable 2.3 mph - N/A   Mostly Cloudy
5:30 AM 48.2 °F - 44.6 °F 87% 29.65 in 6.2 mi Variable 1.2 mph - N/A   Mostly Cloudy
6:00 AM 48 °F - 44 °F 82% 29.68 in 22 mi Calm Calm - -   Mostly Cloudy
6:00 AM 48.2 °F - 44.6 °F 87% 29.65 in 6.2 mi Calm Calm - N/A   Mostly Cloudy
6:30 AM 48.2 °F - 44.6 °F 87% 29.65 in 6.2 mi Variable 1.2 mph - N/A   Mostly Cloudy
7:00 AM 48 °F - 44 °F 81% 29.68 in 22 mi WSW 2.2 mph - -   Partly Cloudy
7:00 AM 48.2 °F - 44.6 °F 87% 29.65 in 6.2 mi North 1.2 mph - N/A   Mostly Cloudy
7:30 AM 48.2 °F - 44.6 °F 87% 29.68 in 6.2 mi Calm Calm - N/A   Mostly Cloudy
8:00 AM 49 °F - 44 °F 75% 29.69 in 25 mi North 2.2 mph - -   Mostly Cloudy
8:00 AM 50.0 °F - 44.6 °F 82% 29.68 in 6.2 mi North 1.2 mph - N/A   Mostly Cloudy
8:30 AM 50.0 °F - 44.6 °F 82% 29.68 in 6.2 mi Variable 2.3 mph - N/A   Mostly Cloudy
9:00 AM 50 °F - 45 °F 76% 29.71 in 25 mi SE 2.2 mph - -   Mostly Cloudy
9:00 AM 50.0 °F - 44.6 °F 82% 29.68 in 6.2 mi Variable 2.3 mph - N/A   Mostly Cloudy
9:30 AM 51.8 °F - 44.6 °F 76% 29.68 in 6.2 mi North 1.2 mph - N/A   Mostly Cloudy
10:00 AM 52 °F - 45 °F 69% 29.71 in 25 mi SSE 2.2 mph - -   Mostly Cloudy
10:00 AM 51.8 °F - 44.6 °F 76% 29.68 in 6.2 mi Variable 1.2 mph - N/A   Mostly Cloudy
10:30 AM 51.8 °F - 46.4 °F 82% 29.68 in 6.2 mi ESE 4.6 mph - N/A   Mostly Cloudy
11:00 AM 53 °F - 44 °F 62% 29.71 in 25 mi SSE 6.7 mph - -   Mostly Cloudy
11:00 AM 53.6 °F - 44.6 °F 72% 29.68 in 6.2 mi SSE 5.8 mph - N/A   Mostly Cloudy
11:30 AM 53.6 °F - 41.0 °F 62% 29.68 in 6.2 mi Variable 3.5 mph - N/A   Mostly Cloudy
12:00 PM 54 °F - 41 °F 52% 29.71 in 25 mi ESE 8.9 mph - -   Mostly Cloudy
12:00 PM 53.6 °F - 42.8 °F 67% 29.71 in 6.2 mi ESE 9.2 mph - N/A   Mostly Cloudy
12:30 PM 55.4 °F - 44.6 °F 67% 29.68 in 6.2 mi SE 9.2 mph - N/A   Mostly Cloudy
1:00 PM 54 °F - 46 °F 67% 29.71 in 25 mi SE 11.2 mph - - Rain Light Rain Showers
1:00 PM 53.6 °F - 46.4 °F 77% 29.68 in 6.2 mi SE 10.4 mph - N/A   Mostly Cloudy
1:30 PM 53.6 °F - 44.6 °F 72% 29.68 in 6.2 mi SSW 8.1 mph - N/A   Mostly Cloudy
2:00 PM 57 °F - 43 °F 49% 29.71 in 25 mi SSW 6.7 mph - - Rain Light Rain Showers
2:00 PM 57.2 °F - 46.4 °F 67% 29.68 in 6.2 mi South 5.8 mph - N/A   Mostly Cloudy
2:30 PM 55.4 °F - 42.8 °F 63% 29.68 in 6.2 mi SW 10.4 mph - N/A   Mostly Cloudy
3:00 PM 55 °F - 44 °F 57% 29.70 in 25 mi SW 11.2 mph - -   Mostly Cloudy
3:00 PM 55.4 °F - 46.4 °F 72% 29.68 in 6.2 mi SW 11.5 mph - N/A   Mostly Cloudy
3:30 PM 57.2 °F - 44.6 °F 63% 29.68 in 6.2 mi South 8.1 mph - N/A   Mostly Cloudy
4:00 PM 60 °F - 43 °F 43% 29.69 in 25 mi ESE 8.9 mph - -   Partly Cloudy
4:00 PM 59.0 °F - 44.6 °F 59% 29.68 in 6.2 mi ESE 9.2 mph - N/A   Mostly Cloudy
4:30 PM 59.0 °F - 44.6 °F 59% 29.68 in 6.2 mi SSE 11.5 mph - N/A   Scattered Clouds
5:00 PM 58 °F - 40 °F 41% 29.69 in 25 mi South 11.2 mph - -   Mostly Cloudy
5:00 PM 59.0 °F - 41.0 °F 51% 29.68 in 6.2 mi South 11.5 mph - N/A   Scattered Clouds
5:30 PM 57.2 °F - 42.8 °F 59% 29.68 in 6.2 mi SSW 15.0 mph - N/A   Scattered Clouds
6:00 PM 55 °F - 39 °F 44% 29.70 in 25 mi SW 15.7 mph - -   Partly Cloudy
6:00 PM 55.4 °F - 37.4 °F 51% 29.68 in 6.2 mi SSW 17.3 mph - N/A   Scattered Clouds
6:30 PM 53.6 °F - 41.0 °F 62% 29.68 in 6.2 mi SSW 13.8 mph - N/A   Scattered Clouds
7:00 PM 53 °F - 39 °F 49% 29.71 in 25 mi SSW 13.4 mph - -   Partly Cloudy
7:00 PM 53.6 °F - 39.2 °F 58% 29.68 in 6.2 mi SSW 15.0 mph - N/A   Scattered Clouds
7:30 PM 51.8 °F - 39.2 °F 62% 29.71 in 6.2 mi SSW 12.7 mph - N/A   Scattered Clouds
8:00 PM 51 °F - 40 °F 56% 29.72 in 25 mi South 11.2 mph - -   Scattered Clouds
8:00 PM 51.8 °F - 39.2 °F 62% 29.71 in 6.2 mi SSW 11.5 mph - N/A   Scattered Clouds
8:30 PM 50.0 °F - 39.2 °F 66% 29.71 in 6.2 mi South 11.5 mph - N/A   Mostly Cloudy
9:00 PM 50 °F - 40 °F 58% 29.73 in 25 mi South 13.4 mph - -   Partly Cloudy
9:00 PM 50.0 °F - 39.2 °F 66% 29.71 in 6.2 mi South 13.8 mph - N/A   Mostly Cloudy
9:30 PM 50.0 °F - 42.8 °F 76% 29.71 in 6.2 mi SE 10.4 mph - N/A Rain Light Rain
10:00 PM 48 °F - 45 °F 86% 29.73 in 16 mi SE 8.9 mph - - Rain Light Rain
10:00 PM 48.2 °F - 44.6 °F 87% 29.71 in 6.2 mi SE 10.4 mph - N/A   Mostly Cloudy
10:30 PM 48.2 °F - 44.6 °F 87% 29.71 in 6.2 mi SSE 10.4 mph - N/A Rain Light Rain
11:00 PM 49 °F - 43 °F 74% 29.72 in 16 mi SSE 13.4 mph - - Rain Light Rain
11:00 PM 48.2 °F - 42.8 °F 82% 29.71 in 6.2 mi SSE 11.5 mph - N/A   Mostly Cloudy
11:30 PM 48.2 °F - 44.6 °F 87% 29.71 in 6.2 mi SSE 12.7 mph - N/A   Mostly Cloudy